TimeCDT,TemperatureF,Dew PointF,Humidity,Sea Level PressureIn,VisibilityMPH,Wind Direction,Wind SpeedMPH,Gust SpeedMPH,PrecipitationIn,Events,Conditions,WindDirDegrees,DateUTC
12:15 AM,64.4,60.8,88,30.04,10.0,Calm,Calm,-,N/A,,Clear,0,2013-09-07 05:15:00
12:35 AM,64.4,60.8,88,30.04,10.0,Calm,Calm,-,N/A,,Clear,0,2013-09-07 05:35:00
12:55 AM,64.4,60.8,88,30.04,10.0,Calm,Calm,-,N/A,,Clear,0,2013-09-07 05:55:00
1:15 AM,62.6,60.8,94,30.04,10.0,Calm,Calm,-,N/A,,Clear,0,2013-09-07 06:15:00
1:35 AM,62.6,60.8,94,30.05,10.0,Calm,Calm,-,N/A,,Clear,0,2013-09-07 06:35:00
1:55 AM,62.6,60.8,94,30.04,10.0,Calm,Calm,-,N/A,,Clear,0,2013-09-07 06:55:00
2:15 AM,60.8,60.8,100,30.04,10.0,Calm,Calm,-,N/A,,Clear,0,2013-09-07 07:15:00
2:35 AM,60.8,60.8,100,30.04,10.0,Calm,Calm,-,N/A,,Clear,0,2013-09-07 07:35:00
2:55 AM,60.8,60.8,100,30.04,10.0,Calm,Calm,-,N/A,,Clear,0,2013-09-07 07:55:00
3:15 AM,60.8,60.8,100,30.04,10.0,Calm,Calm,-,N/A,,Scattered Clouds,0,2013-09-07 08:15:00
3:35 AM,60.8,60.8,100,30.04,10.0,Calm,Calm,-,N/A,,Scattered Clouds,0,2013-09-07 08:35:00
3:55 AM,60.8,59.0,94,30.04,10.0,Calm,Calm,-,N/A,,Partly Cloudy,0,2013-09-07 08:55:00
4:15 AM,59.0,59.0,100,30.04,10.0,Calm,Calm,-,N/A,,Clear,0,2013-09-07 09:15:00
4:35 AM,59.0,59.0,100,30.04,9.0,Calm,Calm,-,N/A,,Clear,0,2013-09-07 09:35:00
4:55 AM,59.0,59.0,100,30.04,10.0,Calm,Calm,-,N/A,,Clear,0,2013-09-07 09:55:00
5:15 AM,59.0,59.0,100,30.04,10.0,Calm,Calm,-,N/A,,Clear,0,2013-09-07 10:15:00
5:35 AM,59.0,59.0,100,30.05,9.0,Calm,Calm,-,N/A,,Clear,0,2013-09-07 10:35:00
5:55 AM,59.0,59.0,100,30.05,8.0,Calm,Calm,-,N/A,,Clear,0,2013-09-07 10:55:00
6:15 AM,59.0,59.0,100,30.05,9.0,Calm,Calm,-,N/A,,Clear,0,2013-09-07 11:15:00
6:35 AM,59.0,59.0,100,30.05,10.0,Calm,Calm,-,N/A,,Clear,0,2013-09-07 11:35:00
6:55 AM,59.0,59.0,100,30.05,9.0,Calm,Calm,-,N/A,,Clear,0,2013-09-07 11:55:00
7:15 AM,59.0,59.0,100,30.05,8.0,Calm,Calm,-,N/A,,Clear,0,2013-09-07 12:15:00
7:35 AM,60.8,59.0,94,30.05,10.0,Calm,Calm,-,N/A,,Clear,0,2013-09-07 12:35:00
7:55 AM,62.6,62.6,100,30.05,10.0,Calm,Calm,-,N/A,,Clear,0,2013-09-07 12:55:00
8:15 AM,66.2,62.6,88,30.05,10.0,Calm,Calm,-,N/A,,Clear,0,2013-09-07 13:15:00
8:35 AM,68.0,64.4,88,30.05,10.0,Calm,Calm,-,N/A,,Clear,0,2013-09-07 13:35:00
8:55 AM,69.8,64.4,83,30.06,10.0,Calm,Calm,-,N/A,,Clear,0,2013-09-07 13:55:00
9:15 AM,71.6,64.4,78,30.06,10.0,Calm,Calm,-,N/A,,Clear,0,2013-09-07 14:15:00
9:35 AM,73.4,66.2,78,30.05,10.0,Calm,Calm,-,N/A,Rain,Light Rain,0,2013-09-07 14:35:00
9:55 AM,75.2,66.2,73,30.05,10.0,Calm,Calm,-,N/A,,Clear,0,2013-09-07 14:55:00
10:15 AM,78.8,66.2,65,30.05,10.0,Calm,Calm,-,N/A,,Clear,0,2013-09-07 15:15:00
10:35 AM,80.6,66.2,61,30.05,9.0,Calm,Calm,-,N/A,,Clear,0,2013-09-07 15:35:00
10:55 AM,80.6,66.2,61,30.05,10.0,Calm,Calm,-,N/A,,Clear,0,2013-09-07 15:55:00
11:15 AM,82.4,66.2,58,30.04,10.0,Calm,Calm,-,N/A,,Clear,0,2013-09-07 16:15:00
11:35 AM,84.2,66.2,55,30.03,10.0,Calm,Calm,-,N/A,,Clear,0,2013-09-07 16:35:00
11:55 AM,84.2,66.2,55,30.03,10.0,Calm,Calm,-,N/A,,Clear,0,2013-09-07 16:55:00
12:15 PM,86.0,64.4,48,30.02,10.0,Calm,Calm,-,N/A,,Clear,0,2013-09-07 17:15:00
12:35 PM,86.0,66.2,51,30.01,10.0,Calm,Calm,-,N/A,,Clear,0,2013-09-07 17:35:00
12:55 PM,87.8,64.4,46,30.00,10.0,Calm,Calm,-,N/A,,Clear,0,2013-09-07 17:55:00
1:15 PM,89.6,64.4,43,29.99,10.0,Calm,Calm,-,N/A,,Clear,0,2013-09-07 18:15:00
1:35 PM,89.6,64.4,43,29.99,10.0,Calm,Calm,-,N/A,,Clear,0,2013-09-07 18:35:00
1:55 PM,89.6,62.6,40,29.98,10.0,Calm,Calm,-,N/A,,Clear,0,2013-09-07 18:55:00
2:15 PM,91.4,60.8,36,29.97,10.0,Calm,Calm,-,N/A,,Clear,0,2013-09-07 19:15:00
2:35 PM,91.4,62.6,38,29.95,10.0,Calm,Calm,-,N/A,,Clear,0,2013-09-07 19:35:00
2:55 PM,91.4,62.6,38,29.95,10.0,Calm,Calm,-,N/A,,Clear,0,2013-09-07 19:55:00
3:15 PM,91.4,60.8,36,29.94,10.0,Calm,Calm,-,N/A,,Clear,0,2013-09-07 20:15:00
3:35 PM,93.2,59.0,32,29.93,10.0,Calm,Calm,-,N/A,,Clear,0,2013-09-07 20:35:00
3:55 PM,93.2,57.2,30,29.93,10.0,Calm,Calm,-,N/A,,Clear,0,2013-09-07 20:55:00
4:15 PM,93.2,59.0,32,29.92,10.0,Calm,Calm,-,N/A,,Clear,0,2013-09-07 21:15:00
4:35 PM,93.2,59.0,32,29.92,10.0,Calm,Calm,-,N/A,,Clear,0,2013-09-07 21:35:00
4:55 PM,93.2,59.0,32,29.91,10.0,Calm,Calm,-,N/A,,Clear,0,2013-09-07 21:55:00
5:15 PM,93.2,59.0,32,29.91,10.0,Calm,Calm,-,N/A,,Clear,0,2013-09-07 22:15:00
5:35 PM,93.2,59.0,32,29.91,10.0,Calm,Calm,-,N/A,,Clear,0,2013-09-07 22:35:00
5:55 PM,93.2,60.8,34,29.90,10.0,Calm,Calm,-,N/A,,Clear,0,2013-09-07 22:55:00
6:15 PM,91.4,60.8,36,29.91,10.0,Calm,Calm,-,N/A,,Clear,0,2013-09-07 23:15:00
6:35 PM,91.4,60.8,36,29.92,10.0,Calm,Calm,-,N/A,,Clear,0,2013-09-07 23:35:00
6:55 PM,89.6,62.6,40,29.92,10.0,Calm,Calm,-,N/A,,Clear,0,2013-09-07 23:55:00
7:35 PM,84.2,62.6,48,29.93,10.0,Calm,Calm,-,N/A,,Clear,0,2013-09-08 00:35:00
7:55 PM,84.2,62.6,48,29.93,10.0,Calm,Calm,-,N/A,,Partly Cloudy,0,2013-09-08 00:55:00
8:15 PM,82.4,64.4,54,29.93,10.0,Calm,Calm,-,N/A,,Partly Cloudy,0,2013-09-08 01:15:00
8:35 PM,78.8,66.2,65,29.93,10.0,Calm,Calm,-,N/A,,Clear,0,2013-09-08 01:35:00
8:55 PM,80.6,62.6,54,29.93,10.0,Calm,Calm,-,N/A,,Clear,0,2013-09-08 01:55:00
9:15 PM,80.6,64.4,58,29.93,10.0,Calm,Calm,-,N/A,,Clear,0,2013-09-08 02:15:00
9:35 PM,75.2,68.0,78,29.92,10.0,Calm,Calm,-,N/A,,Clear,0,2013-09-08 02:35:00
9:55 PM,75.2,66.2,73,29.92,10.0,Calm,Calm,-,N/A,,Clear,0,2013-09-08 02:55:00
10:15 PM,75.2,66.2,73,29.92,10.0,Calm,Calm,-,N/A,,Clear,0,2013-09-08 03:15:00
10:35 PM,73.4,64.4,73,29.91,10.0,Calm,Calm,-,N/A,,Clear,0,2013-09-08 03:35:00
10:55 PM,77.0,64.4,65,29.92,10.0,Calm,Calm,-,N/A,,Clear,0,2013-09-08 03:55:00
11:15 PM,75.2,66.2,73,29.92,10.0,Calm,Calm,-,N/A,,Clear,0,2013-09-08 04:15:00
11:35 PM,73.4,66.2,78,29.93,10.0,Calm,Calm,-,N/A,,Partly Cloudy,0,2013-09-08 04:35:00
11:55 PM,75.2,66.2,73,29.93,10.0,Calm,Calm,-,N/A,,Partly Cloudy,0,2013-09-08 04:55:00